Find Starlink 30141

NORAD ID: 57620 Int'l Des: 2023-119 Owner: SPXS Country: US Constellation: starlink operational
LEOCIRCULAR

当前视图

正在加载3D地球...

About Starlink 30141

Starlink 30141 (NORAD 57620) is a starlink constellation satellite (v2 mini) launched Aug 11, 2023 by SPXS of US. It operates in LEO, CIRCULAR orbit with a mass of 730.00 kg.

关于 Starlink 30141

正在加载描述...

即将过境

Passes for default location (London). Set your location on the main map for personalized predictions.

高度历史

Loading altitude history...

两行轨道根数

1 57620U 23119U 26170.60095742 .00000586 00000-0 30814-4 0 9994
2 57620 43.0023 225.9353 0001063 274.4564 85.6167 15.27577341158677
Epoch: Jun 19, 2026 • Age: 15 hours

当前状态

高度 482.9 km
速度 7.63 km/s
星下点 20.49°N, 32.59°E
发射日期 Aug 11, 2023
运行时间 2.8 years
类型 internet

技术详情

分类 Payload
质量 730.00 kg
干质量 700.00 kg
总质量 730.00 kg
长度 0.30 m
直径 4.10 m
跨度 29.00 m
形状 Box + pan
制造商 SPXS
平台类型 Starlink V2M
阶段状态 In Orbit
所有者/国家 SPXS/US

Most Searched